TAM3280 SBMQ-TNCM

Flight info

Callsign TAM3280
Flight time 3h 13m
Altitude 40000
Route LIXEB/N0479F430 DCT MASEP DCT ETBIG DCT OMIKI DCT OVIVU
Aircraft A359/H-SDE2E3GHIJ3J4J5LM1ORWXY/LB1D1

Departure

Time 2026-04-23 17:13
Airport Macapá - Alberto Alcolumbre International Airport (SBMQ)

Arrival

Time 2026-04-23 20:27
Airport Princess Juliana International Airport (TNCM)
Time Latitude Longitude Altitude Speed Heading
2026-04-23 16:51 0.05078 -51.06886 64 ft 0 kts 236°
2026-04-23 17:07 0.05075 -51.06899 64 ft 4 kts 261°
2026-04-23 17:07 0.05085 -51.06947 60 ft 10 kts 278°
2026-04-23 17:08 0.05063 -51.07019 57 ft 13 kts 241°
2026-04-23 17:08 0.05075 -51.07092 60 ft 13 kts 322°
2026-04-23 17:08 0.05090 -51.07168 60 ft 14 kts 240°
2026-04-23 17:08 0.05027 -51.07271 56 ft 21 kts 238°
2026-04-23 17:09 0.04939 -51.07410 60 ft 27 kts 238°
2026-04-23 17:09 0.04826 -51.07580 58 ft 32 kts 236°
2026-04-23 17:09 0.04697 -51.07776 55 ft 36 kts 236°
2026-04-23 17:09 0.04580 -51.07943 55 ft 0 kts 212°
2026-04-23 17:10 0.04562 -51.07952 58 ft 7 kts 204°
2026-04-23 17:10 0.04541 -51.07988 60 ft 3 kts 306°
2026-04-23 17:10 0.04563 -51.07984 58 ft 4 kts 28°
2026-04-23 17:10 0.04567 -51.07976 56 ft 0 kts 58°
2026-04-23 17:12 0.04568 -51.07974 56 ft 3 kts 58°
2026-04-23 17:13 0.04633 -51.07874 55 ft 59 kts 57°
2026-04-23 17:13 0.05054 -51.07232 59 ft 157 kts 57°
2026-04-23 17:13 0.07161 -51.04604 2404 ft 227 kts 33°
2026-04-23 17:14 0.08728 -51.04249 3723 ft 247 kts 358°
2026-04-23 17:14 0.10468 -51.04722 4836 ft 268 kts 336°
2026-04-23 17:14 0.12096 -51.05678 6249 ft 274 kts 327°
2026-04-23 17:14 0.13665 -51.06799 7520 ft 280 kts 325°
2026-04-23 17:15 0.15262 -51.07956 8781 ft 287 kts 326°
2026-04-23 17:15 0.16375 -51.08726 9586 ft 291 kts 327°
2026-04-23 17:16 0.27191 -51.15151 12210 ft 365 kts 332°
2026-04-23 17:16 0.29421 -51.16377 12565 ft 368 kts 332°
2026-04-23 17:17 0.31677 -51.17610 12941 ft 370 kts 332°
2026-04-23 17:17 0.33935 -51.18853 13309 ft 373 kts 332°
2026-04-23 17:17 0.36209 -51.20118 13682 ft 375 kts 332°
2026-04-23 17:17 0.38494 -51.21399 14016 ft 377 kts 332°
2026-04-23 17:18 0.43089 -51.23992 14640 ft 381 kts 331°
2026-04-23 17:18 0.45406 -51.25302 14965 ft 383 kts 331°
2026-04-23 17:18 0.47733 -51.26617 15280 ft 385 kts 331°
2026-04-23 17:19 0.50071 -51.27939 15617 ft 387 kts 331°
2026-04-23 17:19 0.52423 -51.29268 15925 ft 389 kts 331°
2026-04-23 17:19 0.54778 -51.30601 16245 ft 391 kts 331°
2026-04-23 17:19 0.56243 -51.31429 16444 ft 392 kts 331°
2026-04-23 17:20 0.57104 -51.31915 16550 ft 393 kts 331°
2026-04-23 17:20 0.61891 -51.34620 17193 ft 397 kts 331°
2026-04-23 17:21 0.66691 -51.37332 17818 ft 401 kts 331°
2026-04-23 17:21 0.69124 -51.38705 18128 ft 403 kts 331°
2026-04-23 17:21 0.74026 -51.41474 18652 ft 406 kts 331°
2026-04-23 17:22 0.76494 -51.42868 18915 ft 408 kts 331°
2026-04-23 17:22 0.81456 -51.45671 19433 ft 411 kts 331°
2026-04-23 17:23 0.86450 -51.48493 19920 ft 414 kts 331°
2026-04-23 17:23 0.88966 -51.49915 20172 ft 416 kts 331°
2026-04-23 17:23 0.94028 -51.52775 20669 ft 419 kts 331°
2026-04-23 17:24 0.96571 -51.54212 20906 ft 421 kts 331°
2026-04-23 17:24 0.99126 -51.55655 21147 ft 423 kts 331°
2026-04-23 17:24 1.04261 -51.58555 21621 ft 426 kts 331°
2026-04-23 17:25 1.09438 -51.61480 22090 ft 429 kts 331°
2026-04-23 17:25 1.12044 -51.62952 22294 ft 431 kts 331°
2026-04-23 17:26 1.17283 -51.65912 22781 ft 433 kts 331°
2026-04-23 17:26 1.22547 -51.68887 23201 ft 437 kts 331°
2026-04-23 17:27 1.27858 -51.71888 23593 ft 440 kts 331°
2026-04-23 17:27 1.30525 -51.73396 23776 ft 442 kts 331°
2026-04-23 17:27 1.33208 -51.74911 23952 ft 443 kts 331°
2026-04-23 17:27 1.35888 -51.76426 24142 ft 444 kts 331°
2026-04-23 17:28 1.38585 -51.77951 24337 ft 445 kts 331°
2026-04-23 17:28 1.46451 -51.82397 24894 ft 449 kts 331°
2026-04-23 17:29 1.49181 -51.83940 25075 ft 450 kts 331°
2026-04-23 17:29 1.51910 -51.85482 25268 ft 452 kts 331°
2026-04-23 17:29 1.57314 -51.88537 26081 ft 442 kts 331°
2026-04-23 17:30 1.59979 -51.90044 26507 ft 438 kts 331°
2026-04-23 17:30 1.65280 -51.93041 27148 ft 437 kts 331°
2026-04-23 17:30 1.67932 -51.94540 27462 ft 436 kts 331°
2026-04-23 17:31 1.70612 -51.96055 27819 ft 436 kts 331°
2026-04-23 17:31 1.73214 -51.97526 28183 ft 435 kts 331°
2026-04-23 17:31 1.75857 -51.99021 28524 ft 435 kts 331°
2026-04-23 17:31 1.78496 -52.00513 28683 ft 439 kts 331°
2026-04-23 17:32 1.81173 -52.02026 28795 ft 444 kts 331°
2026-04-23 17:32 1.83887 -52.03560 28921 ft 449 kts 330°
2026-04-23 17:32 1.86621 -52.05106 29028 ft 454 kts 330°
2026-04-23 17:32 1.89385 -52.06669 29145 ft 459 kts 330°
2026-04-23 17:33 1.92182 -52.08251 29261 ft 463 kts 330°
2026-04-23 17:33 1.95000 -52.09845 29360 ft 468 kts 330°
2026-04-23 17:33 1.97852 -52.11458 29473 ft 472 kts 330°
2026-04-23 17:33 2.00725 -52.13082 29573 ft 477 kts 330°
2026-04-23 17:34 2.06541 -52.16371 29845 ft 483 kts 330°
2026-04-23 17:34 2.12422 -52.19699 30214 ft 487 kts 330°
2026-04-23 17:35 2.15376 -52.21370 30378 ft 488 kts 330°
2026-04-23 17:35 2.21302 -52.24722 30787 ft 491 kts 330°
2026-04-23 17:35 2.24287 -52.26411 30982 ft 492 kts 330°
2026-04-23 17:36 2.27276 -52.28102 31189 ft 494 kts 330°
2026-04-23 17:36 2.30271 -52.29797 31385 ft 495 kts 330°
2026-04-23 17:36 2.33276 -52.31497 31578 ft 496 kts 330°
2026-04-23 17:36 2.36290 -52.33202 31758 ft 498 kts 330°
2026-04-23 17:37 2.39308 -52.34911 31950 ft 499 kts 330°
2026-04-23 17:37 2.42336 -52.36624 32143 ft 500 kts 330°
2026-04-23 17:37 2.48377 -52.40043 32470 ft 503 kts 330°
2026-04-23 17:38 2.51432 -52.41772 32654 ft 504 kts 331°
2026-04-23 17:38 2.54496 -52.43507 32838 ft 505 kts 331°
2026-04-23 17:38 2.57574 -52.45249 32995 ft 507 kts 331°
2026-04-23 17:38 2.60645 -52.46988 33152 ft 508 kts 330°
2026-04-23 17:39 2.63729 -52.48734 33311 ft 509 kts 330°
2026-04-23 17:39 2.66818 -52.50483 33480 ft 510 kts 330°
2026-04-23 17:39 2.69919 -52.52239 33624 ft 512 kts 330°
2026-04-23 17:39 2.72988 -52.53977 33781 ft 513 kts 331°
2026-04-23 17:40 2.76097 -52.55737 33955 ft 514 kts 330°
2026-04-23 17:40 2.79208 -52.57499 34170 ft 513 kts 330°
2026-04-23 17:40 2.82315 -52.59259 34391 ft 512 kts 330°
2026-04-23 17:40 2.85416 -52.61015 34626 ft 512 kts 331°
2026-04-23 17:41 2.88514 -52.62770 34862 ft 511 kts 331°
2026-04-23 17:41 2.94695 -52.66272 35354 ft 510 kts 331°
2026-04-23 17:41 2.97780 -52.68019 35616 ft 509 kts 331°
2026-04-23 17:42 3.03949 -52.71515 36207 ft 507 kts 331°
2026-04-23 17:42 3.07016 -52.73255 36480 ft 507 kts 331°
2026-04-23 17:42 3.10082 -52.74992 36767 ft 506 kts 331°
2026-04-23 17:43 3.13148 -52.76729 37052 ft 505 kts 331°
2026-04-23 17:43 3.16167 -52.78440 37326 ft 505 kts 331°
2026-04-23 17:43 3.19224 -52.80173 37609 ft 504 kts 331°
2026-04-23 17:43 3.22279 -52.81904 37902 ft 503 kts 331°
2026-04-23 17:44 3.25319 -52.83627 38194 ft 502 kts 331°
2026-04-23 17:44 3.28363 -52.85353 38486 ft 502 kts 331°
2026-04-23 17:44 3.34438 -52.88797 38935 ft 501 kts 331°
2026-04-23 17:45 3.37474 -52.90518 39160 ft 500 kts 331°
2026-04-23 17:45 3.43529 -52.93952 39572 ft 500 kts 331°
2026-04-23 17:45 3.46554 -52.95668 39777 ft 499 kts 331°
2026-04-23 17:46 3.52566 -52.99078 40179 ft 498 kts 331°
2026-04-23 17:46 3.55585 -53.00791 40374 ft 498 kts 331°
2026-04-23 17:46 3.58602 -53.02503 40563 ft 498 kts 331°
2026-04-23 17:47 3.61612 -53.04211 40753 ft 498 kts 331°
2026-04-23 17:47 3.64626 -53.05921 40935 ft 497 kts 331°
2026-04-23 17:47 3.70662 -53.09347 41277 ft 497 kts 332°
2026-04-23 17:48 3.73666 -53.11051 41446 ft 497 kts 332°
2026-04-23 17:48 3.76647 -53.12744 41607 ft 497 kts 332°
2026-04-23 17:48 3.79691 -53.14471 41817 ft 496 kts 332°
2026-04-23 17:48 3.81681 -53.15601 41923 ft 496 kts 332°
2026-04-23 17:49 3.85660 -53.17860 42144 ft 496 kts 332°
2026-04-23 17:49 3.88665 -53.19566 42308 ft 496 kts 331°
2026-04-23 17:49 3.90658 -53.20698 42390 ft 496 kts 332°
2026-04-23 17:49 3.94636 -53.23034 42616 ft 495 kts 328°
2026-04-23 17:50 3.96589 -53.24306 42720 ft 495 kts 327°
2026-04-23 17:50 4.02241 -53.28205 42919 ft 496 kts 326°
2026-04-23 17:50 4.05073 -53.30173 42920 ft 495 kts 326°
2026-04-23 17:51 4.10760 -53.34063 42918 ft 495 kts 327°
2026-04-23 17:52 4.19348 -53.39833 42921 ft 495 kts 327°
2026-04-23 17:52 4.27951 -53.45596 42918 ft 495 kts 327°
2026-04-23 17:53 4.36502 -53.51331 42917 ft 495 kts 327°
2026-04-23 17:54 4.42229 -53.55174 42917 ft 495 kts 327°
2026-04-23 17:54 4.50818 -53.60939 42919 ft 495 kts 327°
2026-04-23 17:55 4.59414 -53.66710 42920 ft 496 kts 327°
2026-04-23 17:56 4.65117 -53.70540 42919 ft 496 kts 327°
2026-04-23 17:56 4.73767 -53.76350 42918 ft 496 kts 327°
2026-04-23 17:57 4.79512 -53.80210 42922 ft 496 kts 327°
2026-04-23 17:58 4.88097 -53.85979 42921 ft 497 kts 327°
2026-04-23 17:58 4.93843 -53.89842 42926 ft 497 kts 327°
2026-04-23 17:59 4.99596 -53.93710 42921 ft 498 kts 327°
2026-04-23 17:59 5.05350 -53.97580 42922 ft 498 kts 326°
2026-04-23 18:00 5.11093 -54.01443 42926 ft 498 kts 326°
2026-04-23 18:00 5.16864 -54.05326 42922 ft 498 kts 326°
2026-04-23 18:01 5.22581 -54.09174 42923 ft 498 kts 326°
2026-04-23 18:01 5.28336 -54.13048 42921 ft 498 kts 326°
2026-04-23 18:02 5.34095 -54.16926 42916 ft 498 kts 326°
2026-04-23 18:02 5.39859 -54.20807 42919 ft 498 kts 326°
2026-04-23 18:03 5.45616 -54.24685 42921 ft 498 kts 326°
2026-04-23 18:03 5.51372 -54.28562 42920 ft 497 kts 326°
2026-04-23 18:04 5.57117 -54.32434 42918 ft 497 kts 326°
2026-04-23 18:04 5.62834 -54.36288 42915 ft 497 kts 326°
2026-04-23 18:05 5.68585 -54.40165 42922 ft 498 kts 326°
2026-04-23 18:05 5.74345 -54.44050 42920 ft 498 kts 326°
2026-04-23 18:06 5.80099 -54.47931 42917 ft 498 kts 326°
2026-04-23 18:06 5.85863 -54.51820 42921 ft 499 kts 326°
2026-04-23 18:07 5.91589 -54.55685 42920 ft 499 kts 326°
2026-04-23 18:07 5.97354 -54.59576 42923 ft 499 kts 326°
2026-04-23 18:08 6.02156 -54.62819 42920 ft 500 kts 326°
2026-04-23 18:08 6.08914 -54.67383 42922 ft 501 kts 326°
2026-04-23 18:09 6.14698 -54.71291 42914 ft 501 kts 326°
2026-04-23 18:09 6.20504 -54.75215 42926 ft 502 kts 326°
2026-04-23 18:10 6.26271 -54.79113 42918 ft 503 kts 326°
2026-04-23 18:10 6.32076 -54.83038 42922 ft 504 kts 326°
2026-04-23 18:11 6.37908 -54.86982 42924 ft 504 kts 326°
2026-04-23 18:11 6.43735 -54.90924 42921 ft 505 kts 326°
2026-04-23 18:12 6.49570 -54.94873 42921 ft 505 kts 325°
2026-04-23 18:12 6.55410 -54.98826 42921 ft 506 kts 326°
2026-04-23 18:13 6.61257 -55.02785 42925 ft 507 kts 326°
2026-04-23 18:13 6.67114 -55.06753 42925 ft 507 kts 326°
2026-04-23 18:14 6.72978 -55.10725 42923 ft 508 kts 325°
2026-04-23 18:14 6.78819 -55.14684 42924 ft 508 kts 326°
2026-04-23 18:15 6.84688 -55.18662 42924 ft 509 kts 325°
2026-04-23 18:15 6.90564 -55.22647 42925 ft 509 kts 325°
2026-04-23 18:16 6.96436 -55.26630 42927 ft 509 kts 325°
2026-04-23 18:16 7.02318 -55.30621 42927 ft 510 kts 325°
2026-04-23 18:17 7.11151 -55.36616 42930 ft 510 kts 325°
2026-04-23 18:17 7.16998 -55.40587 42930 ft 510 kts 325°
2026-04-23 18:18 7.22882 -55.44583 42930 ft 510 kts 325°
2026-04-23 18:18 7.28768 -55.48582 42928 ft 510 kts 325°
2026-04-23 18:19 7.34650 -55.52581 42929 ft 510 kts 325°
2026-04-23 18:19 7.40526 -55.56575 42929 ft 509 kts 325°
2026-04-23 18:20 7.46438 -55.60597 42930 ft 509 kts 325°
2026-04-23 18:20 7.52264 -55.64560 42930 ft 508 kts 325°
2026-04-23 18:21 7.58117 -55.68544 42929 ft 508 kts 325°
2026-04-23 18:21 7.63978 -55.72534 42931 ft 507 kts 325°
2026-04-23 18:22 7.69829 -55.76519 42931 ft 507 kts 325°
2026-04-23 18:22 7.75675 -55.80501 42930 ft 507 kts 325°
2026-04-23 18:23 7.84432 -55.86470 42929 ft 506 kts 325°
2026-04-23 18:24 7.92194 -55.91763 42933 ft 505 kts 325°
2026-04-23 18:25 8.01915 -55.98395 42929 ft 505 kts 324°
2026-04-23 18:25 8.07736 -56.02369 42930 ft 505 kts 324°
2026-04-23 18:26 8.13549 -56.06337 42930 ft 504 kts 324°
2026-04-23 18:26 8.19360 -56.10307 42935 ft 504 kts 324°
2026-04-23 18:27 8.25171 -56.14278 42928 ft 504 kts 324°
2026-04-23 18:27 8.30977 -56.18246 42930 ft 504 kts 324°
2026-04-23 18:28 8.36784 -56.22217 42934 ft 503 kts 324°
2026-04-23 18:28 8.42547 -56.26159 42932 ft 503 kts 324°
2026-04-23 18:29 8.48346 -56.30128 42929 ft 503 kts 324°
2026-04-23 18:29 8.54155 -56.34104 42933 ft 503 kts 324°
2026-04-23 18:30 8.58969 -56.37401 42931 ft 503 kts 324°
2026-04-23 18:30 8.64763 -56.41370 42934 ft 502 kts 324°
2026-04-23 18:31 8.70553 -56.45337 42930 ft 502 kts 324°
2026-04-23 18:31 8.76336 -56.49302 42930 ft 502 kts 324°
2026-04-23 18:32 8.82114 -56.53265 42928 ft 501 kts 324°
2026-04-23 18:32 8.87894 -56.57230 42934 ft 501 kts 324°
2026-04-23 18:33 8.93652 -56.61182 42933 ft 500 kts 324°
2026-04-23 18:33 8.99412 -56.65137 42935 ft 499 kts 324°
2026-04-23 18:34 9.05111 -56.69052 42929 ft 498 kts 324°
2026-04-23 18:34 9.10848 -56.72994 42929 ft 497 kts 324°
2026-04-23 18:35 9.16575 -56.76930 42935 ft 496 kts 324°
2026-04-23 18:35 9.22283 -56.80856 42932 ft 496 kts 324°
2026-04-23 18:36 9.27965 -56.84765 42932 ft 495 kts 324°
2026-04-23 18:36 9.33695 -56.88708 42930 ft 494 kts 324°
2026-04-23 18:37 9.39344 -56.92598 42930 ft 493 kts 324°
2026-04-23 18:37 9.45013 -56.96503 42932 ft 492 kts 324°
2026-04-23 18:38 9.50670 -57.00400 42928 ft 491 kts 324°
2026-04-23 18:38 9.56314 -57.04291 42930 ft 490 kts 324°
2026-04-23 18:39 9.61944 -57.08173 42932 ft 489 kts 324°
2026-04-23 18:39 9.67556 -57.12045 42932 ft 488 kts 324°
2026-04-23 18:40 9.73169 -57.15919 42929 ft 487 kts 324°
2026-04-23 18:40 9.78766 -57.19784 42931 ft 486 kts 324°
2026-04-23 18:41 9.84362 -57.23649 42929 ft 486 kts 324°
2026-04-23 18:41 9.89908 -57.27481 42926 ft 485 kts 324°
2026-04-23 18:42 9.95484 -57.31336 42929 ft 485 kts 324°
2026-04-23 18:42 10.01065 -57.35196 42929 ft 484 kts 324°
2026-04-23 18:43 10.06630 -57.39047 42927 ft 484 kts 324°
2026-04-23 18:43 10.12191 -57.42896 42928 ft 483 kts 324°
2026-04-23 18:44 10.17741 -57.46740 42932 ft 483 kts 324°
2026-04-23 18:44 10.23262 -57.50564 42930 ft 482 kts 324°
2026-04-23 18:45 10.28808 -57.54409 42933 ft 482 kts 324°
2026-04-23 18:45 10.34347 -57.58250 42932 ft 482 kts 324°
2026-04-23 18:46 10.39883 -57.62090 42932 ft 481 kts 324°
2026-04-23 18:46 10.45415 -57.65929 42933 ft 481 kts 324°
2026-04-23 18:47 10.50939 -57.69765 42935 ft 481 kts 324°
2026-04-23 18:47 10.56457 -57.73598 42934 ft 480 kts 324°
2026-04-23 18:48 10.61975 -57.77432 42935 ft 480 kts 324°
2026-04-23 18:48 10.67498 -57.81272 42936 ft 480 kts 324°
2026-04-23 18:49 10.73011 -57.85107 42931 ft 480 kts 324°
2026-04-23 18:49 10.78531 -57.88948 42937 ft 480 kts 324°
2026-04-23 18:50 10.83111 -57.92136 42936 ft 480 kts 323°
2026-04-23 18:50 10.89561 -57.96629 42938 ft 480 kts 323°
2026-04-23 18:51 10.95035 -58.00443 42938 ft 480 kts 323°
2026-04-23 18:51 11.00540 -58.04280 42938 ft 480 kts 323°
2026-04-23 18:52 11.06044 -58.08120 42936 ft 479 kts 323°
2026-04-23 18:52 11.11555 -58.11965 42939 ft 479 kts 323°
2026-04-23 18:53 11.17054 -58.15804 42938 ft 479 kts 323°
2026-04-23 18:53 11.22553 -58.19645 42943 ft 479 kts 323°
2026-04-23 18:54 11.28061 -58.23494 42939 ft 479 kts 323°
2026-04-23 18:54 11.33558 -58.27336 42938 ft 479 kts 323°
2026-04-23 18:55 11.39050 -58.31177 42945 ft 479 kts 323°
2026-04-23 18:55 11.44513 -58.35000 42940 ft 478 kts 323°
2026-04-23 18:56 11.49072 -58.38192 42935 ft 478 kts 323°
2026-04-23 18:56 11.55475 -58.42676 42944 ft 477 kts 323°
2026-04-23 18:57 11.60941 -58.46506 42936 ft 477 kts 323°
2026-04-23 18:57 11.66406 -58.50338 42939 ft 476 kts 323°
2026-04-23 18:58 11.71870 -58.54171 42938 ft 476 kts 323°
2026-04-23 18:58 11.77317 -58.57993 42937 ft 475 kts 323°
2026-04-23 18:59 11.82764 -58.61818 42942 ft 475 kts 323°
2026-04-23 18:59 11.88205 -58.65641 42938 ft 475 kts 323°
2026-04-23 19:00 11.93339 -58.69836 42938 ft 472 kts 315°
2026-04-23 19:00 11.98122 -58.74367 42938 ft 472 kts 314°
2026-04-23 19:01 12.02884 -58.78980 42939 ft 472 kts 314°
2026-04-23 19:01 12.07652 -58.83602 42941 ft 472 kts 314°
2026-04-23 19:02 12.11618 -58.87437 42936 ft 472 kts 314°
2026-04-23 19:02 12.17214 -58.92841 42940 ft 473 kts 314°
2026-04-23 19:03 12.21997 -58.97462 42942 ft 475 kts 314°
2026-04-23 19:03 12.26838 -59.02144 42938 ft 481 kts 314°
2026-04-23 19:04 12.31711 -59.06858 42941 ft 484 kts 314°
2026-04-23 19:04 12.36586 -59.11576 42940 ft 486 kts 314°
2026-04-23 19:05 12.41512 -59.16345 42941 ft 487 kts 314°
2026-04-23 19:05 12.46437 -59.21116 42944 ft 487 kts 314°
2026-04-23 19:06 12.51357 -59.25884 42939 ft 487 kts 314°
2026-04-23 19:06 12.56249 -59.30630 42941 ft 487 kts 314°
2026-04-23 19:07 12.61186 -59.35421 42944 ft 487 kts 314°
2026-04-23 19:07 12.66097 -59.40190 42944 ft 486 kts 314°
2026-04-23 19:08 12.70968 -59.44922 42944 ft 485 kts 314°
2026-04-23 19:08 12.75864 -59.49682 42941 ft 484 kts 314°
2026-04-23 19:09 12.80756 -59.54439 42941 ft 484 kts 314°
2026-04-23 19:09 12.85626 -59.59179 42943 ft 483 kts 314°
2026-04-23 19:10 12.90500 -59.63925 42941 ft 482 kts 314°
2026-04-23 19:10 12.94539 -59.67860 42940 ft 482 kts 314°
2026-04-23 19:11 12.99407 -59.72605 42933 ft 481 kts 314°
2026-04-23 19:11 13.04260 -59.77339 42932 ft 481 kts 314°
2026-04-23 19:12 13.09117 -59.82079 42934 ft 481 kts 314°
2026-04-23 19:12 13.13940 -59.86788 42935 ft 481 kts 314°
2026-04-23 19:13 13.18794 -59.91531 42931 ft 482 kts 314°
2026-04-23 19:13 13.23647 -59.96274 42934 ft 482 kts 314°
2026-04-23 19:14 13.28517 -60.01037 42938 ft 482 kts 314°
2026-04-23 19:14 13.33777 -60.05340 42937 ft 487 kts 327°
2026-04-23 19:15 13.39834 -60.08407 42937 ft 489 kts 333°
2026-04-23 19:15 13.46082 -60.11222 42939 ft 490 kts 334°
2026-04-23 19:16 13.52341 -60.14005 42941 ft 490 kts 334°
2026-04-23 19:16 13.58596 -60.16815 42937 ft 490 kts 333°
2026-04-23 19:17 13.67952 -60.21052 42940 ft 490 kts 333°
2026-04-23 19:17 13.74190 -60.23882 42942 ft 489 kts 333°
2026-04-23 19:18 13.80423 -60.26711 42945 ft 489 kts 333°
2026-04-23 19:18 13.86657 -60.29540 42946 ft 489 kts 333°
2026-04-23 19:19 13.96010 -60.33788 42944 ft 489 kts 333°
2026-04-23 19:20 14.05315 -60.38018 42944 ft 488 kts 333°
2026-04-23 19:20 14.11541 -60.40850 42943 ft 488 kts 333°
2026-04-23 19:21 14.20861 -60.45094 42947 ft 487 kts 333°
2026-04-23 19:22 14.27020 -60.47900 42941 ft 487 kts 333°
2026-04-23 19:22 14.36306 -60.52135 42952 ft 486 kts 333°
2026-04-23 19:23 14.42491 -60.54957 42944 ft 485 kts 333°
2026-04-23 19:24 14.51762 -60.59191 42957 ft 485 kts 332°
2026-04-23 19:24 14.61010 -60.63418 42944 ft 484 kts 332°
2026-04-23 19:25 14.73335 -60.69058 42942 ft 484 kts 332°
2026-04-23 19:26 14.82562 -60.73285 42949 ft 483 kts 332°
2026-04-23 19:27 14.97887 -60.80315 42936 ft 483 kts 332°
2026-04-23 19:28 15.10174 -60.85958 42944 ft 483 kts 332°
2026-04-23 19:29 15.19390 -60.90196 42949 ft 482 kts 332°
2026-04-23 19:30 15.28555 -60.94415 42940 ft 482 kts 331°
2026-04-23 19:31 15.37748 -60.98650 42952 ft 482 kts 331°
2026-04-23 19:31 15.43872 -61.01474 42957 ft 482 kts 331°
2026-04-23 19:32 15.49902 -61.04462 42954 ft 477 kts 324°
2026-04-23 19:32 15.55033 -61.08680 42964 ft 468 kts 312°
2026-04-23 19:33 15.59658 -61.13427 42963 ft 467 kts 310°
2026-04-23 19:33 15.66478 -61.20656 42962 ft 466 kts 310°
2026-04-23 19:34 15.71020 -61.25441 42965 ft 458 kts 310°
2026-04-23 19:34 15.75420 -61.30051 42963 ft 443 kts 310°
2026-04-23 19:35 15.77549 -61.32286 42959 ft 441 kts 310°
2026-04-23 19:35 15.81883 -61.36845 42952 ft 441 kts 310°
2026-04-23 19:36 15.86188 -61.41377 42948 ft 441 kts 310°
2026-04-23 19:36 15.90510 -61.45926 42947 ft 441 kts 310°
2026-04-23 19:37 15.95091 -61.50194 42941 ft 444 kts 315°
2026-04-23 19:37 15.99824 -61.54272 42940 ft 444 kts 315°
2026-04-23 19:38 16.04606 -61.58377 42943 ft 444 kts 315°
2026-04-23 19:38 16.09381 -61.62475 42943 ft 445 kts 315°
2026-04-23 19:39 16.14145 -61.66563 42470 ft 442 kts 315°
2026-04-23 19:39 16.16524 -61.68606 41707 ft 445 kts 315°
2026-04-23 19:39 16.18926 -61.70674 40916 ft 450 kts 315°
2026-04-23 19:39 16.21334 -61.72777 40100 ft 454 kts 315°
2026-04-23 19:40 16.23770 -61.74900 39367 ft 458 kts 315°
2026-04-23 19:40 16.26222 -61.77031 38637 ft 462 kts 314°
2026-04-23 19:40 16.28708 -61.79190 37766 ft 466 kts 315°
2026-04-23 19:40 16.31195 -61.81352 37179 ft 466 kts 315°
2026-04-23 19:41 16.33693 -61.83523 36957 ft 469 kts 315°
2026-04-23 19:41 16.36199 -61.85704 36656 ft 467 kts 315°
2026-04-23 19:41 16.38695 -61.87876 35868 ft 469 kts 315°
2026-04-23 19:41 16.41215 -61.90075 35027 ft 475 kts 315°
2026-04-23 19:42 16.43712 -61.92250 34462 ft 459 kts 315°
2026-04-23 19:42 16.46130 -61.94348 33518 ft 450 kts 315°
2026-04-23 19:42 16.48550 -61.96462 32772 ft 453 kts 315°
2026-04-23 19:42 16.50922 -61.98537 32318 ft 449 kts 315°
2026-04-23 19:43 16.53313 -62.00628 31763 ft 447 kts 315°
2026-04-23 19:43 16.55694 -62.02711 31153 ft 447 kts 315°
2026-04-23 19:43 16.58070 -62.04791 30519 ft 447 kts 316°
2026-04-23 19:43 16.60460 -62.06883 29878 ft 447 kts 316°
2026-04-23 19:44 16.62830 -62.08957 29329 ft 443 kts 316°
2026-04-23 19:44 16.65343 -62.10812 28725 ft 446 kts 328°
2026-04-23 19:44 16.68274 -62.11903 28204 ft 451 kts 345°
2026-04-23 19:44 16.71424 -62.12089 27674 ft 457 kts
2026-04-23 19:45 16.74542 -62.11409 27217 ft 459 kts 13°
2026-04-23 19:45 16.77548 -62.10386 27020 ft 465 kts 15°
2026-04-23 19:45 16.80668 -62.09278 26982 ft 482 kts 15°
2026-04-23 19:45 16.83889 -62.08135 26981 ft 491 kts 15°
2026-04-23 19:46 16.87123 -62.06986 26984 ft 491 kts 15°
2026-04-23 19:46 16.90362 -62.05834 26980 ft 490 kts 15°
2026-04-23 19:46 16.93592 -62.04684 26976 ft 490 kts 15°
2026-04-23 19:46 16.96824 -62.03532 26971 ft 490 kts 15°
2026-04-23 19:47 16.98976 -62.02841 26962 ft 486 kts
2026-04-23 19:47 17.03377 -62.02524 26788 ft 463 kts 349°
2026-04-23 19:47 17.06415 -62.03329 26546 ft 441 kts 333°
2026-04-23 19:47 17.08977 -62.04929 26306 ft 420 kts 316°
2026-04-23 19:48 17.10868 -62.07156 26076 ft 401 kts 299°
2026-04-23 19:48 17.11682 -62.08848 25937 ft 390 kts 289°
2026-04-23 19:48 17.12815 -62.12378 25690 ft 375 kts 285°
2026-04-23 19:48 17.13567 -62.14948 25524 ft 364 kts 285°
2026-04-23 19:49 17.14051 -62.16609 25393 ft 358 kts 285°
2026-04-23 19:49 17.14767 -62.19066 25208 ft 349 kts 285°
2026-04-23 19:49 17.15696 -62.22257 24775 ft 344 kts 285°
2026-04-23 19:49 17.16390 -62.24649 24404 ft 342 kts 285°
2026-04-23 19:50 17.16844 -62.26221 24171 ft 340 kts 285°
2026-04-23 19:50 17.17522 -62.28576 23993 ft 338 kts 285°
2026-04-23 19:50 17.18333 -62.30891 23966 ft 340 kts 293°
2026-04-23 19:50 17.19391 -62.33119 23964 ft 341 kts 295°
2026-04-23 19:51 17.20533 -62.35294 23964 ft 341 kts 297°
2026-04-23 19:51 17.21725 -62.37446 23964 ft 341 kts 298°
2026-04-23 19:51 17.22936 -62.39584 23965 ft 342 kts 298°
2026-04-23 19:51 17.24148 -62.41713 23971 ft 342 kts 298°
2026-04-23 19:52 17.25362 -62.43855 23963 ft 341 kts 298°
2026-04-23 19:52 17.26570 -62.45999 23965 ft 341 kts 297°
2026-04-23 19:52 17.27769 -62.48139 23965 ft 341 kts 297°
2026-04-23 19:52 17.28967 -62.50285 23966 ft 341 kts 297°
2026-04-23 19:53 17.30161 -62.52430 23966 ft 341 kts 297°
2026-04-23 19:53 17.31358 -62.54582 23965 ft 341 kts 297°
2026-04-23 19:53 17.32552 -62.56729 23964 ft 341 kts 297°
2026-04-23 19:53 17.33744 -62.58872 23968 ft 341 kts 297°
2026-04-23 19:54 17.34931 -62.61007 23747 ft 338 kts 297°
2026-04-23 19:54 17.36115 -62.63136 23138 ft 336 kts 297°
2026-04-23 19:54 17.37284 -62.65240 22087 ft 335 kts 297°
2026-04-23 19:54 17.38459 -62.67357 21021 ft 336 kts 298°
2026-04-23 19:55 17.39632 -62.69470 20045 ft 335 kts 298°
2026-04-23 19:55 17.40798 -62.71571 19131 ft 333 kts 298°
2026-04-23 19:55 17.41956 -62.73656 18439 ft 326 kts 298°
2026-04-23 19:55 17.43100 -62.75716 17899 ft 336 kts 298°
2026-04-23 19:56 17.44323 -62.77928 17776 ft 361 kts 298°
2026-04-23 19:56 17.45567 -62.80173 17295 ft 357 kts 298°
2026-04-23 19:56 17.46947 -62.82425 16526 ft 376 kts 306°
2026-04-23 19:56 17.48791 -62.84443 16089 ft 395 kts 317°
2026-04-23 19:57 17.50906 -62.86323 15968 ft 400 kts 319°
2026-04-23 19:57 17.53048 -62.88163 15808 ft 395 kts 319°
2026-04-23 19:57 17.55167 -62.89975 15027 ft 394 kts 319°
2026-04-23 19:57 17.57315 -62.91809 14053 ft 401 kts 319°
2026-04-23 19:58 17.59484 -62.93659 13142 ft 402 kts 320°
2026-04-23 19:58 17.61649 -62.95504 12265 ft 401 kts 320°
2026-04-23 19:58 17.63814 -62.97348 11439 ft 399 kts 320°
2026-04-23 19:58 17.65935 -62.99156 11032 ft 385 kts 320°
2026-04-23 19:59 17.67975 -63.00894 10779 ft 370 kts 320°
2026-04-23 19:59 17.69943 -63.02562 10542 ft 356 kts 321°
2026-04-23 19:59 17.71888 -63.04173 10393 ft 347 kts 321°
2026-04-23 19:59 17.73682 -63.05648 10326 ft 309 kts 321°
2026-04-23 20:00 17.75293 -63.06978 10240 ft 288 kts 321°
2026-04-23 20:00 17.76890 -63.08307 10134 ft 296 kts 321°
2026-04-23 20:00 17.78500 -63.09658 10020 ft 297 kts 321°
2026-04-23 20:00 17.80076 -63.10988 9902 ft 284 kts 321°
2026-04-23 20:01 17.81593 -63.12273 9784 ft 283 kts 321°
2026-04-23 20:01 17.83156 -63.13597 9615 ft 294 kts 321°
2026-04-23 20:01 17.84752 -63.14951 9378 ft 294 kts 321°
2026-04-23 20:01 17.86343 -63.16299 8909 ft 294 kts 321°
2026-04-23 20:02 17.87932 -63.17648 8493 ft 292 kts 321°
2026-04-23 20:02 17.89506 -63.18983 8157 ft 290 kts 321°
2026-04-23 20:02 17.91068 -63.20308 7815 ft 288 kts 321°
2026-04-23 20:02 17.92628 -63.21632 7497 ft 287 kts 321°
2026-04-23 20:03 17.94178 -63.22948 7157 ft 286 kts 321°
2026-04-23 20:03 17.95727 -63.24263 6819 ft 285 kts 321°
2026-04-23 20:03 17.97260 -63.25564 6301 ft 281 kts 321°
2026-04-23 20:03 17.98766 -63.26844 5708 ft 271 kts 321°
2026-04-23 20:04 18.00173 -63.28040 5442 ft 250 kts 321°
2026-04-23 20:04 18.01471 -63.29143 5227 ft 231 kts 321°
2026-04-23 20:04 18.02549 -63.30304 5031 ft 211 kts 304°
2026-04-23 20:04 18.03589 -63.31242 4820 ft 190 kts 341°
2026-04-23 20:05 18.04822 -63.31168 4501 ft 177 kts 28°
2026-04-23 20:05 18.05541 -63.30185 4143 ft 173 kts 78°
2026-04-23 20:05 18.05286 -63.29029 3972 ft 159 kts 123°
2026-04-23 20:05 18.04659 -63.28113 3732 ft 151 kts 125°
2026-04-23 20:06 18.04033 -63.27224 3379 ft 152 kts 124°
2026-04-23 20:06 18.03421 -63.26312 2988 ft 153 kts 120°
2026-04-23 20:06 18.02975 -63.25300 2624 ft 151 kts 106°
2026-04-23 20:06 18.02754 -63.24242 2454 ft 147 kts 96°
2026-04-23 20:07 18.02709 -63.23172 2323 ft 148 kts 83°
2026-04-23 20:07 18.03045 -63.22161 2164 ft 146 kts 63°
2026-04-23 20:07 18.03560 -63.21244 1994 ft 147 kts 69°
2026-04-23 20:07 18.03651 -63.20171 1945 ft 149 kts 96°
2026-04-23 20:08 18.03401 -63.19163 1791 ft 139 kts 105°
2026-04-23 20:08 18.03139 -63.18192 1501 ft 138 kts 96°
2026-04-23 20:08 18.03150 -63.17163 1249 ft 144 kts 83°
2026-04-23 20:08 18.03319 -63.16115 1027 ft 146 kts 79°
2026-04-23 20:09 18.03503 -63.15067 765 ft 145 kts 80°
2026-04-23 20:09 18.03652 -63.14024 576 ft 146 kts 82°
2026-04-23 20:09 18.03801 -63.12969 316 ft 146 kts 82°
2026-04-23 20:09 18.03952 -63.11914 407 ft 158 kts 82°
2026-04-23 20:10 18.04063 -63.11111 715 ft 177 kts 82°
2026-04-23 20:10 18.03834 -63.09328 1653 ft 184 kts 117°
2026-04-23 20:10 18.03005 -63.08443 2289 ft 164 kts 145°
2026-04-23 20:10 18.01982 -63.07909 3119 ft 161 kts 153°
2026-04-23 20:11 18.01151 -63.07106 3652 ft 167 kts 126°
2026-04-23 20:11 18.00554 -63.06039 4163 ft 173 kts 114°
2026-04-23 20:11 18.00118 -63.04799 4612 ft 193 kts 105°
2026-04-23 20:11 17.99854 -63.03335 4907 ft 212 kts 96°
2026-04-23 20:12 17.99777 -63.01767 4987 ft 216 kts 89°
2026-04-23 20:12 17.99877 -63.00190 4997 ft 217 kts 83°
2026-04-23 20:12 18.00147 -62.98630 4998 ft 217 kts 77°
2026-04-23 20:12 18.00582 -62.97111 4999 ft 217 kts 70°
2026-04-23 20:13 18.01174 -62.95654 4998 ft 217 kts 65°
2026-04-23 20:13 18.02023 -62.94341 5056 ft 223 kts 46°
2026-04-23 20:13 18.03414 -62.93432 5239 ft 254 kts 16°
2026-04-23 20:13 18.05239 -62.93490 5708 ft 274 kts 342°
2026-04-23 20:14 18.06836 -62.94581 5946 ft 278 kts 311°
2026-04-23 20:14 18.07725 -62.96370 6005 ft 278 kts 288°
2026-04-23 20:14 18.08600 -62.98185 6001 ft 281 kts 303°
2026-04-23 20:14 18.09652 -62.99917 6000 ft 281 kts 302°
2026-04-23 20:15 18.10671 -63.01665 6003 ft 281 kts 301°
2026-04-23 20:15 18.11659 -63.03443 5997 ft 280 kts 300°
2026-04-23 20:15 18.12596 -63.05212 6005 ft 280 kts 298°
2026-04-23 20:15 18.13508 -63.07026 6321 ft 283 kts 297°
2026-04-23 20:16 18.14406 -63.08921 7210 ft 286 kts 295°
2026-04-23 20:16 18.15157 -63.10817 8284 ft 286 kts 287°
2026-04-23 20:16 18.15478 -63.12886 9216 ft 288 kts 272°
2026-04-23 20:16 18.15481 -63.15008 9766 ft 292 kts 268°
2026-04-23 20:17 18.15403 -63.17141 9948 ft 293 kts 267°
2026-04-23 20:17 18.15307 -63.19297 9969 ft 295 kts 267°
2026-04-23 20:17 18.15209 -63.21454 9989 ft 296 kts 267°
2026-04-23 20:17 18.15110 -63.23609 9969 ft 295 kts 267°
2026-04-23 20:18 18.15011 -63.25779 9554 ft 298 kts 267°
2026-04-23 20:18 18.14911 -63.27950 9167 ft 295 kts 267°
2026-04-23 20:18 18.14813 -63.30093 8762 ft 293 kts 267°
2026-04-23 20:18 18.14715 -63.32226 8341 ft 291 kts 267°
2026-04-23 20:19 18.14617 -63.34343 7940 ft 289 kts 267°
2026-04-23 20:19 18.14323 -63.36422 7499 ft 288 kts 250°
2026-04-23 20:19 18.13293 -63.38187 7090 ft 284 kts 224°
2026-04-23 20:19 18.11666 -63.39271 6880 ft 274 kts 198°
2026-04-23 20:20 18.09827 -63.39482 6701 ft 263 kts 173°
2026-04-23 20:20 18.08072 -63.39151 6287 ft 250 kts 166°
2026-04-23 20:20 18.06408 -63.38731 5820 ft 244 kts 165°
2026-04-23 20:20 18.04769 -63.38305 5373 ft 242 kts 165°
2026-04-23 20:21 18.03107 -63.37873 4915 ft 248 kts 165°
2026-04-23 20:21 18.01430 -63.37438 4441 ft 253 kts 165°
2026-04-23 20:21 17.99707 -63.36995 3972 ft 257 kts 165°
2026-04-23 20:21 17.97970 -63.36521 3498 ft 259 kts 160°
2026-04-23 20:22 17.96394 -63.35643 3123 ft 255 kts 137°
2026-04-23 20:22 17.95417 -63.34168 2938 ft 242 kts 109°
2026-04-23 20:22 17.95270 -63.32473 2767 ft 230 kts 79°
2026-04-23 20:22 17.95842 -63.30937 2630 ft 225 kts 61°
2026-04-23 20:23 17.96696 -63.29558 2599 ft 227 kts 49°
2026-04-23 20:23 17.97850 -63.28426 2597 ft 227 kts 41°
2026-04-23 20:23 17.98887 -63.27182 2603 ft 227 kts 54°
2026-04-23 20:23 17.99751 -63.25802 2613 ft 225 kts 58°
2026-04-23 20:24 18.00545 -63.24456 2619 ft 208 kts 58°
2026-04-23 20:24 18.01290 -63.23176 2600 ft 203 kts 59°
2026-04-23 20:24 18.01988 -63.21958 2590 ft 188 kts 59°
2026-04-23 20:24 18.02500 -63.20725 2434 ft 180 kts 72°
2026-04-23 20:25 18.02736 -63.19480 2202 ft 170 kts 82°
2026-04-23 20:25 18.02920 -63.18260 1839 ft 168 kts 79°
2026-04-23 20:25 18.03121 -63.17054 1493 ft 166 kts 79°
2026-04-23 20:25 18.03348 -63.15867 1136 ft 165 kts 78°
2026-04-23 20:26 18.03547 -63.14695 782 ft 162 kts 80°
2026-04-23 20:26 18.03643 -63.13917 524 ft 162 kts 81°
2026-04-23 20:26 18.03829 -63.12761 282 ft 160 kts 77°
2026-04-23 20:26 18.03996 -63.11584 50 ft 163 kts 78°
2026-04-23 20:27 18.04146 -63.10542 27 ft 109 kts 82°
2026-04-23 20:27 18.04211 -63.10066 29 ft 22 kts 81°
2026-04-23 20:27 18.04221 -63.09995 26 ft 28 kts 79°
2026-04-23 20:27 18.04281 -63.09887 27 ft 2 kts 69°
2026-04-23 20:28 18.04261 -63.09835 27 ft 13 kts 153°
2026-04-23 20:28 18.04241 -63.09836 27 ft 10 kts 195°
2026-04-23 20:28 18.04221 -63.09856 27 ft 2 kts 251°
2026-04-23 20:28 18.04221 -63.09874 27 ft 5 kts 267°
2026-04-23 20:29 18.04218 -63.09934 31 ft 19 kts 267°
2026-04-23 20:29 18.04185 -63.10233 30 ft 41 kts 262°
2026-04-23 20:29 18.04159 -63.10434 26 ft 44 kts 262°
2026-04-23 20:29 18.04100 -63.10871 26 ft 43 kts 262°
2026-04-23 20:30 18.04059 -63.11132 28 ft 22 kts 260°
2026-04-23 20:30 18.04134 -63.11295 27 ft 0 kts 350°
2026-04-23 20:31 18.04157 -63.11299 27 ft 8 kts 350°
2026-04-23 20:31 18.04225 -63.11321 27 ft 1 kts 331°
2026-04-23 20:31 18.04244 -63.11333 27 ft 8 kts 328°
2026-04-23 20:31 18.04314 -63.11359 27 ft 8 kts 350°
2026-04-23 20:32 18.04323 -63.11361 27 ft 0 kts 351°